| time (UTC) | temp C | wind direction | speed KPH | gust KPH | rain 1hr cm | rain 24hr cm | rain mn cm | humidity % | barometer mb |
| 20260906073530 | 27 | 57 | 9.7 | 27.4 | 0.00 | 0.00 | 0.00 | 51 | 1022.1 |
| 20260906073045 | 27 | 5 | 8.0 | 22.5 | 0.00 | 0.00 | 0.00 | 51 | 1022.0 |
| 20260906072548 | 27 | 55 | 9.7 | 20.9 | 0.00 | 0.00 | 0.00 | 51 | 1022.1 |
| 20260906072049 | 26 | 74 | 8.0 | 19.3 | 0.00 | 0.00 | 0.00 | 51 | 1022.0 |
| 20260906071513 | 26 | 42 | 9.7 | 24.1 | 0.00 | 0.00 | 0.00 | 51 | 1022.2 |
| 20260906071020 | 26 | 35 | 9.7 | 24.1 | 0.00 | 0.00 | 0.00 | 52 | 1022.1 |
| 20260906070525 | 26 | 52 | 8.0 | 22.5 | 0.00 | 0.00 | 0.00 | 52 | 1022.2 |
| 20260906070019 | 26 | 35 | 6.4 | 20.9 | 0.00 | 0.00 | 0.00 | 53 | 1022.0 |
| 20260906065525 | 26 | 44 | 8.0 | 20.9 | 0.00 | 0.00 | 0.00 | 53 | 1022.0 |
| 20260906065046 | 26 | 90 | 4.8 | 20.9 | 0.00 | 0.00 | 0.00 | 54 | 1022.1 |
| 20260906064550 | 25 | 46 | 8.0 | 20.9 | 0.00 | 0.00 | 0.00 | 54 | 1022.1 |
| 20260906064015 | 25 | 75 | 11.3 | 20.9 | 0.00 | 0.00 | 0.00 | 54 | 1022.0 |
| 20260906063522 | 25 | 50 | 6.4 | 25.7 | 0.00 | 0.00 | 0.00 | 55 | 1022.1 |
| 20260906063018 | 25 | 53 | 12.9 | 25.7 | 0.00 | 0.00 | 0.00 | 55 | 1022.0 |
| 20260906062523 | 25 | 49 | 6.4 | 17.7 | 0.00 | 0.00 | 0.00 | 56 | 1021.9 |
| 20260906062024 | 25 | 55 | 1.6 | 24.1 | 0.00 | 0.00 | 0.00 | 56 | 1022.0 |
| 20260906061529 | 25 | 61 | 6.4 | 27.4 | 0.00 | 0.00 | 0.00 | 55 | 1022.0 |
| 20260906061030 | 25 | 75 | 4.8 | 27.4 | 0.00 | 0.00 | 0.00 | 56 | 1021.9 |
| 20260906060519 | 24 | 42 | 4.8 | 19.3 | 0.00 | 0.00 | 0.00 | 58 | 1021.9 |
| 20260906060017 | 24 | 41 | 3.2 | 12.9 | 0.00 | 0.00 | 0.00 | 58 | 1021.9 |
| 20260906055522 | 24 | 44 | 4.8 | 17.7 | 0.00 | 0.00 | 0.00 | 58 | 1021.7 |
| 20260906055025 | 24 | 46 | 6.4 | 19.3 | 0.00 | 0.00 | 0.00 | 58 | 1021.7 |
| 20260906054532 | 24 | 59 | 3.2 | 19.3 | 0.00 | 0.00 | 0.00 | 58 | 1021.6 |
| 20260906054014 | 24 | 36 | 6.4 | 19.3 | 0.00 | 0.00 | 0.00 | 58 | 1021.8 |
| 20260906053520 | 24 | 348 | 4.8 | 9.7 | 0.00 | 0.00 | 0.00 | 60 | 1021.6 |
| 20260906053014 | 24 | 344 | 1.6 | 14.5 | 0.00 | 0.00 | 0.00 | 60 | 1021.5 |
| 20260906052520 | 24 | 341 | 3.2 | 14.5 | 0.00 | 0.00 | 0.00 | 58 | 1021.5 |
| 20260906052024 | 24 | 355 | 3.2 | 16.1 | 0.00 | 0.00 | 0.00 | 60 | 1021.5 |
| 20260906051531 | 24 | 355 | 3.2 | 16.1 | 0.00 | 0.00 | 0.00 | 59 | 1021.4 |
| 20260906051013 | 24 | 346 | 4.8 | 9.7 | 0.00 | 0.00 | 0.00 | 58 | 1021.4 |
| 20260906050523 | 24 | 347 | 4.8 | 9.7 | 0.00 | 0.00 | 0.00 | 58 | 1021.4 |
| 20260906050019 | 24 | 355 | 3.2 | 12.9 | 0.00 | 0.00 | 0.00 | 58 | 1021.4 |
| 20260906045546 | 24 | 5 | 4.8 | 12.9 | 0.00 | 0.00 | 0.00 | 58 | 1021.3 |
| 20260906045026 | 24 | 10 | 4.8 | 16.1 | 0.00 | 0.00 | 0.00 | 58 | 1021.2 |
| 20260906044530 | 24 | 360 | 4.8 | 16.1 | 0.00 | 0.00 | 0.00 | 58 | 1021.2 |
| 20260906044015 | 24 | 28 | 3.2 | 12.9 | 0.00 | 0.00 | 0.00 | 58 | 1021.3 |
| 20260906043519 | 24 | 28 | 4.8 | 14.5 | 0.00 | 0.00 | 0.00 | 58 | 1021.1 |
| 20260906043013 | 24 | 40 | 3.2 | 14.5 | 0.00 | 0.00 | 0.00 | 57 | 1021.1 |
| 20260906042519 | 24 | 30 | 3.2 | 12.9 | 0.00 | 0.00 | 0.00 | 58 | 1021.1 |
| 20260906042020 | 24 | 30 | 4.8 | 19.3 | 0.00 | 0.00 | 0.00 | 58 | 1021.0 |
| 20260906041526 | 24 | 30 | 6.4 | 19.3 | 0.00 | 0.00 | 0.00 | 58 | 1021.0 |
| 20260906041028 | 24 | 12 | 1.6 | 16.1 | 0.00 | 0.00 | 0.00 | 59 | 1020.9 |
| 20260906040514 | 24 | 17 | 3.2 | 16.1 | 0.00 | 0.00 | 0.00 | 58 | 1020.9 |
| 20260906040048 | 24 | 5 | 3.2 | 14.5 | 0.00 | 0.00 | 0.00 | 58 | 1020.8 |
| 20260906035512 | 25 | 355 | 3.2 | 9.7 | 0.00 | 0.00 | 0.00 | 58 | 1020.8 |
| 20260906035013 | 25 | 355 | 3.2 | 6.4 | 0.00 | 0.00 | 0.00 | 58 | 1020.7 |
| 20260906034518 | 25 | 355 | 3.2 | 8.0 | 0.00 | 0.00 | 0.00 | 57 | 1020.6 |
| 20260906034026 | 25 | 355 | 4.8 | 8.0 | 0.00 | 0.00 | 0.00 | 57 | 1020.6 |
| 20260906033532 | 25 | 360 | 3.2 | 8.0 | 0.00 | 0.00 | 0.00 | 57 | 1020.6 |
| 20260906033026 | 25 | 5 | 3.2 | 6.4 | 0.00 | 0.00 | 0.00 | 57 | 1020.6 |
| 20260906032514 | 25 | 360 | 1.6 | 9.7 | 0.00 | 0.00 | 0.00 | 57 | 1020.6 |
| 20260906032018 | 25 | 15 | 3.2 | 9.7 | 0.00 | 0.00 | 0.00 | 56 | 1020.4 |
| 20260906031523 | 25 | 355 | 3.2 | 6.4 | 0.00 | 0.00 | 0.00 | 58 | 1020.4 |
| 20260906031026 | 25 | 355 | 1.6 | 4.8 | 0.00 | 0.00 | 0.00 | 57 | 1020.4 |
| 20260906030514 | 25 | 360 | 1.6 | 9.7 | 0.00 | 0.00 | 0.00 | 56 | 1020.3 |
| 20260906030028 | 25 | 360 | 3.2 | 12.9 | 0.00 | 0.00 | 0.00 | 55 | 1020.4 |
| 20260906025536 | 25 | 10 | 3.2 | 12.9 | 0.00 | 0.00 | 0.00 | 55 | 1020.3 |
| 20260906025015 | 25 | 5 | 3.2 | 9.7 | 0.00 | 0.00 | 0.00 | 55 | 1020.3 |
| 20260906024521 | 25 | 38 | 3.2 | 11.3 | 0.00 | 0.00 | 0.00 | 55 | 1020.3 |
| 20260906024024 | 25 | 44 | 1.6 | 11.3 | 0.00 | 0.00 | 0.00 | 56 | 1020.2 |
| 20260906023514 | 25 | 38 | 1.6 | 19.3 | 0.00 | 0.00 | 0.00 | 55 | 1020.2 |
| 20260906023029 | 25 | 325 | 3.2 | 12.9 | 0.00 | 0.00 | 0.00 | 55 | 1020.1 |
| 20260906022514 | 25 | 313 | 1.6 | 8.0 | 0.00 | 0.00 | 0.00 | 55 | 1020.2 |
| 20260906022019 | 25 | 313 | 1.6 | 12.9 | 0.00 | 0.00 | 0.00 | 54 | 1020.1 |
| 20260906021544 | 25 | 317 | 1.6 | 8.0 | 0.00 | 0.00 | 0.00 | 55 | 1020.1 |
| 20260906021025 | 25 | 318 | 3.2 | 8.0 | 0.00 | 0.00 | 0.00 | 55 | 1020.1 |
| 20260906020530 | 25 | 317 | 3.2 | 9.7 | 0.00 | 0.00 | 0.00 | 55 | 1020.0 |
| 20260906020026 | 25 | 313 | 3.2 | 14.5 | 0.00 | 0.00 | 0.00 | 55 | 1020.1 |
| 20260906015513 | 25 | 304 | 4.8 | 14.5 | 0.00 | 0.00 | 0.00 | 54 | 1019.9 |
| 20260906015016 | 25 | 346 | 3.2 | 14.5 | 0.00 | 0.00 | 0.00 | 55 | 1019.9 |
| 20260906014522 | 25 | 310 | 1.6 | 8.0 | 0.00 | 0.00 | 0.00 | 55 | 1020.0 |
| 20260906014026 | 26 | 313 | 1.6 | 16.1 | 0.00 | 0.00 | 0.00 | 55 | 1019.9 |
| 20260906013517 | 25 | 311 | 4.8 | 16.1 | 0.00 | 0.00 | 0.00 | 55 | 1019.9 |
| 20260906013031 | 25 | 15 | 4.8 | 16.1 | 0.00 | 0.00 | 0.00 | 55 | 1020.0 |
| 20260906012518 | 26 | 350 | 3.2 | 8.0 | 0.00 | 0.00 | 0.00 | 55 | 1019.9 |
| 20260906012020 | 25 | 348 | 1.6 | 12.9 | 0.00 | 0.00 | 0.00 | 56 | 1020.0 |
| 20260906011527 | 25 | 348 | 3.2 | 12.9 | 0.00 | 0.00 | 0.00 | 55 | 1020.0 |
| 20260906011029 | 25 | 5 | 3.2 | 14.5 | 0.00 | 0.00 | 0.00 | 56 | 1020.0 |
| 20260906010534 | 25 | 11 | 1.6 | 14.5 | 0.00 | 0.00 | 0.00 | 56 | 1019.9 |
| 20260906010025 | 25 | 355 | 3.2 | 9.7 | 0.00 | 0.00 | 0.00 | 56 | 1019.9 |
| 20260906005532 | 25 | 355 | 3.2 | 9.7 | 0.00 | 0.00 | 0.00 | 56 | 1019.8 |
| 20260906005015 | 25 | 5 | 1.6 | 12.9 | 0.00 | 0.00 | 0.00 | 56 | 1019.8 |
| 20260906004542 | 25 | 360 | 3.2 | 12.9 | 0.00 | 0.00 | 0.00 | 56 | 1019.8 |
| 20260906004024 | 25 | 360 | 1.6 | 8.0 | 0.00 | 0.00 | 0.00 | 57 | 1019.8 |
| 20260906003554 | 25 | 360 | 3.2 | 12.9 | 0.00 | 0.00 | 0.00 | 56 | 1019.8 |
| 20260906003027 | 25 | 13 | 3.2 | 16.1 | 0.00 | 0.00 | 0.00 | 56 | 1019.8 |
| 20260906002532 | 25 | 22 | 3.2 | 16.1 | 0.00 | 0.00 | 0.00 | 56 | 1019.7 |
| 20260906002017 | 25 | 12 | 1.6 | 14.5 | 0.00 | 0.00 | 0.00 | 57 | 1019.7 |
| 20260906001524 | 25 | 15 | 4.8 | 14.5 | 0.00 | 0.00 | 0.00 | 57 | 1019.7 |
| 20260906001024 | 25 | 5 | 3.2 | 9.7 | 0.00 | 0.00 | 0.00 | 56 | 1019.7 |
| 20260906000550 | 25 | 19 | 3.2 | 6.4 | 0.00 | 0.00 | 0.00 | 57 | 1019.7 |
| 20260906000022 | 25 | 19 | 1.6 | 6.4 | 0.00 | 0.00 | 0.00 | 56 | 1019.7 |
| 20260905235548 | 26 | 22 | 3.2 | 6.4 | 0.00 | 0.00 | 0.00 | 57 | 1019.7 |
| 20260905235029 | 26 | 18 | 3.2 | 14.5 | 0.00 | 0.00 | 0.00 | 56 | 1019.6 |
| 20260905234514 | 26 | 19 | 3.2 | 14.5 | 0.00 | 0.00 | 0.00 | 56 | 1019.5 |
| 20260905234018 | 26 | 24 | 3.2 | 8.0 | 0.00 | 0.00 | 0.00 | 57 | 1019.5 |
| 20260905233543 | 26 | 30 | 1.6 | 19.3 | 0.00 | 0.00 | 0.00 | 57 | 1019.4 |
| 20260905233016 | 26 | 36 | 3.2 | 19.3 | 0.00 | 0.00 | 0.00 | 57 | 1019.5 |
| 20260905232522 | 26 | 292 | 3.2 | 8.0 | 0.00 | 0.00 | 0.00 | 57 | 1019.4 |
| 20260905232024 | 26 | 292 | 3.2 | 8.0 | 0.00 | 0.00 | 0.00 | 57 | 1019.4 |
| 20260905231529 | 26 | 288 | 3.2 | 6.4 | 0.00 | 0.00 | 0.00 | 58 | 1019.4 |
| 20260905231014 | 26 | 287 | 1.6 | 6.4 | 0.00 | 0.00 | 0.00 | 58 | 1019.4 |
| 20260905230524 | 25 | 287 | 3.2 | 11.3 | 0.00 | 0.00 | 0.00 | 58 | 1019.4 |
| 20260905230018 | 25 | 287 | 1.6 | 6.4 | 0.00 | 0.00 | 0.00 | 58 | 1019.3 |
| 20260905225526 | 25 | 287 | 3.2 | 6.4 | 0.00 | 0.00 | 0.00 | 57 | 1019.3 |
| 20260905225030 | 25 | 287 | 3.2 | 6.4 | 0.00 | 0.00 | 0.00 | 58 | 1019.2 |
| 20260905224535 | 25 | 284 | 1.6 | 4.8 | 0.00 | 0.00 | 0.00 | 60 | 1019.1 |
| 20260905224015 | 25 | 284 | 1.6 | 6.4 | 0.00 | 0.00 | 0.00 | 60 | 1019.1 |
| 20260905223521 | 25 | 284 | 3.2 | 6.4 | 0.00 | 0.00 | 0.00 | 61 | 1019.1 |
| 20260905223015 | 25 | 284 | 1.6 | 4.8 | 0.00 | 0.00 | 0.00 | 61 | 1019.0 |
| 20260905222521 | 25 | 284 | 1.6 | 4.8 | 0.00 | 0.00 | 0.00 | 59 | 1019.0 |
| 20260905222023 | 25 | 284 | 1.6 | 6.4 | 0.00 | 0.00 | 0.00 | 61 | 1019.0 |
| 20260905221528 | 25 | 284 | 3.2 | 4.8 | 0.00 | 0.00 | 0.00 | 58 | 1019.1 |
| 20260905221029 | 25 | 284 | 1.6 | 8.0 | 0.00 | 0.00 | 0.00 | 60 | 1019.0 |
| 20260905220537 | 25 | 283 | 1.6 | 8.0 | 0.00 | 0.00 | 0.00 | 60 | 1019.0 |
| 20260905220052 | 25 | 282 | 3.2 | 8.0 | 0.00 | 0.00 | 0.00 | 60 | 1019.1 |
| 20260905215517 | 25 | 277 | 1.6 | 4.8 | 0.00 | 0.00 | 0.00 | 60 | 1019.0 |
| 20260905215039 | 25 | 277 | 1.6 | 4.8 | 0.00 | 0.00 | 0.00 | 60 | 1018.9 |
| 20260905214544 | 25 | 277 | 1.6 | 4.8 | 0.00 | 0.00 | 0.00 | 60 | 1019.0 |
| 20260905214024 | 25 | 277 | 1.6 | 4.8 | 0.00 | 0.00 | 0.00 | 58 | 1019.0 |
| 20260905213533 | 25 | 277 | 1.6 | 4.8 | 0.00 | 0.00 | 0.00 | 58 | 1019.1 |
| 20260905213028 | 25 | 277 | 1.6 | 4.8 | 0.00 | 0.00 | 0.00 | 59 | 1019.1 |
| 20260905212533 | 26 | 276 | 1.6 | 6.4 | 0.00 | 0.00 | 0.00 | 60 | 1019.0 |
| 20260905212053 | 26 | 276 | 3.2 | 6.4 | 0.00 | 0.00 | 0.00 | 57 | 1019.1 |
| 20260905211518 | 25 | 272 | 1.6 | 11.3 | 0.00 | 0.00 | 0.00 | 58 | 1019.0 |
| 20260905211021 | 25 | 271 | 1.6 | 4.8 | 0.00 | 0.00 | 0.00 | 61 | 1018.9 |
| 20260905210527 | 26 | 271 | 1.6 | 4.8 | 0.00 | 0.00 | 0.00 | 61 | 1018.9 |
| 20260905210021 | 26 | 271 | 1.6 | 4.8 | 0.00 | 0.00 | 0.00 | 59 | 1018.9 |
| 20260905205525 | 26 | 271 | 1.6 | 6.4 | 0.00 | 0.00 | 0.00 | 60 | 1018.8 |
| 20260905205029 | 26 | 271 | 3.2 | 6.4 | 0.00 | 0.00 | 0.00 | 60 | 1018.9 |
| 20260905204516 | 26 | 269 | 1.6 | 6.4 | 0.00 | 0.00 | 0.00 | 60 | 1018.9 |
| 20260905204017 | 26 | 268 | 3.2 | 11.3 | 0.00 | 0.00 | 0.00 | 58 | 1018.9 |
| 20260905203526 | 26 | 267 | 3.2 | 11.3 | 0.00 | 0.00 | 0.00 | 59 | 1018.9 |
| 20260905203020 | 26 | 259 | 1.6 | 4.8 | 0.00 | 0.00 | 0.00 | 58 | 1018.8 |
| 20260905202527 | 26 | 259 | 1.6 | 6.4 | 0.00 | 0.00 | 0.00 | 59 | 1018.8 |
| 20260905202029 | 26 | 258 | 1.6 | 14.5 | 0.00 | 0.00 | 0.00 | 59 | 1018.8 |
| 20260905201515 | 26 | 254 | 4.8 | 14.5 | 0.00 | 0.00 | 0.00 | 60 | 1018.7 |
| 20260905201018 | 26 | 241 | 1.6 | 4.8 | 0.00 | 0.00 | 0.00 | 59 | 1018.7 |
| 20260905200524 | 26 | 240 | 1.6 | 4.8 | 0.00 | 0.00 | 0.00 | 61 | 1018.7 |
| 20260905200018 | 26 | 240 | 3.2 | 6.4 | 0.00 | 0.00 | 0.00 | 59 | 1018.5 |
| 20260905195523 | 26 | 240 | 1.6 | 6.4 | 0.00 | 0.00 | 0.00 | 60 | 1018.5 |
| 20260905195026 | 26 | 240 | 3.2 | 11.3 | 0.00 | 0.00 | 0.00 | 59 | 1018.4 |
| 20260905194532 | 26 | 239 | 3.2 | 9.7 | 0.00 | 0.00 | 0.00 | 60 | 1018.3 |
| 20260905194054 | 26 | 234 | 3.2 | 8.0 | 0.00 | 0.00 | 0.00 | 60 | 1018.2 |
| 20260905193524 | 26 | 238 | 3.2 | 4.8 | 0.00 | 0.00 | 0.00 | 60 | 1018.3 |
| 20260905193018 | 26 | 236 | 1.6 | 6.4 | 0.00 | 0.00 | 0.00 | 61 | 1018.1 |
| 20260905192524 | 26 | 236 | 3.2 | 6.4 | 0.00 | 0.00 | 0.00 | 61 | 1018.0 |
| 20260905192026 | 26 | 236 | 1.6 | 6.4 | 0.00 | 0.00 | 0.00 | 60 | 1018.1 |
| 20260905191532 | 26 | 236 | 3.2 | 6.4 | 0.00 | 0.00 | 0.00 | 60 | 1018.1 |
| 20260905191015 | 26 | 234 | 1.6 | 3.2 | 0.00 | 0.00 | 0.00 | 60 | 1018.1 |
| 20260905190520 | 26 | 234 | 1.6 | 6.4 | 0.00 | 0.00 | 0.00 | 59 | 1018.0 |
| 20260905190016 | 27 | 234 | 3.2 | 6.4 | 0.00 | 0.00 | 0.00 | 60 | 1017.9 |
| 20260905185520 | 27 | 233 | 1.6 | 9.7 | 0.00 | 0.00 | 0.00 | 59 | 1017.9 |
| 20260905185024 | 27 | 232 | 1.6 | 9.7 | 0.00 | 0.00 | 0.00 | 59 | 1017.8 |
| 20260905184530 | 27 | 219 | 3.2 | 6.4 | 0.00 | 0.00 | 0.00 | 60 | 1017.7 |
| 20260905184011 | 27 | 217 | 1.6 | 6.4 | 0.00 | 0.00 | 0.00 | 59 | 1017.6 |
| 20260905183537 | 27 | 217 | 3.2 | 9.7 | 0.00 | 0.00 | 0.00 | 60 | 1017.4 |
| 20260905183014 | 27 | 216 | 1.6 | 9.7 | 0.00 | 0.00 | 0.00 | 60 | 1017.4 |
| 20260905182540 | 26 | 221 | 1.6 | 4.8 | 0.00 | 0.00 | 0.00 | 61 | 1017.3 |
| 20260905182021 | 26 | 219 | 1.6 | 4.8 | 0.00 | 0.00 | 0.00 | 61 | 1017.3 |
| 20260905181528 | 26 | 219 | 1.6 | 4.8 | 0.00 | 0.00 | 0.00 | 61 | 1017.2 |
| 20260905181029 | 26 | 219 | 0.0 | 4.8 | 0.00 | 0.00 | 0.00 | 63 | 1017.2 |
| 20260905180514 | 26 | 219 | 0.0 | 6.4 | 0.00 | 0.00 | 0.00 | 61 | 1017.2 |
| 20260905180027 | 26 | 220 | 1.6 | 3.2 | 0.00 | 0.00 | 0.00 | 62 | 1017.1 |
| 20260905175514 | 26 | 220 | 0.0 | 3.2 | 0.00 | 0.00 | 0.00 | 63 | 1017.0 |
| 20260905175038 | 26 | 220 | 1.6 | 3.2 | 0.00 | 0.00 | 0.00 | 64 | 1016.9 |
| 20260905174522 | 26 | 220 | 1.6 | 3.2 | 0.00 | 0.00 | 0.00 | 64 | 1016.8 |
| 20260905174023 | 27 | 220 | 0.0 | 3.2 | 0.00 | 0.00 | 0.00 | 64 | 1016.8 |
| 20260905173549 | 27 | 220 | 1.6 | 4.8 | 0.00 | 0.00 | 0.00 | 64 | 1016.7 |
| 20260905173022 | 27 | 220 | 1.6 | 4.8 | 0.00 | 0.00 | 0.00 | 63 | 1016.6 |
| 20260905172530 | 27 | 220 | 1.6 | 4.8 | 0.00 | 0.00 | 0.00 | 60 | 1016.5 |
| 20260905172011 | 27 | 220 | 1.6 | 4.8 | 0.00 | 0.00 | 0.00 | 61 | 1016.4 |
| 20260905171536 | 27 | 220 | 1.6 | 4.8 | 0.00 | 0.00 | 0.00 | 60 | 1016.3 |
| 20260905171018 | 27 | 219 | 1.6 | 4.8 | 0.00 | 0.00 | 0.00 | 62 | 1016.2 |
| 20260905170528 | 27 | 219 | 0.0 | 6.4 | 0.00 | 0.00 | 0.00 | 64 | 1016.2 |
| 20260905170023 | 26 | 219 | 1.6 | 6.4 | 0.00 | 0.00 | 0.00 | 65 | 1016.1 |
| 20260905165529 | 26 | 219 | 1.6 | 4.8 | 0.00 | 0.00 | 0.00 | 67 | 1016.1 |
| 20260905165011 | 26 | 219 | 0.0 | 1.6 | 0.00 | 0.00 | 0.00 | 71 | 1016.1 |
| 20260905164515 | 26 | 219 | 0.0 | 4.8 | 0.00 | 0.00 | 0.00 | 72 | 1016.0 |
| 20260905164017 | 27 | 219 | 1.6 | 4.8 | 0.00 | 0.00 | 0.00 | 72 | 1015.8 |
| 20260905163545 | 27 | 219 | 0.0 | 0.0 | 0.00 | 0.00 | 0.00 | 71 | 1015.6 |
| 20260905163041 | 27 | 219 | 0.0 | 1.6 | 0.00 | 0.00 | 0.00 | 71 | 1015.5 |
| 20260905162527 | 27 | 219 | 0.0 | 1.6 | 0.00 | 0.00 | 0.00 | 70 | 1015.4 |
| 20260905162030 | 27 | 219 | 0.0 | 0.0 | 0.00 | 0.00 | 0.00 | 70 | 1015.4 |
| 20260905161516 | 27 | 219 | 0.0 | 0.0 | 0.00 | 0.00 | 0.00 | 69 | 1015.4 |
| 20260905161020 | 28 | 219 | 0.0 | 0.0 | 0.00 | 0.00 | 0.00 | 69 | 1015.4 |
| 20260905160526 | 28 | 219 | 0.0 | 0.0 | 0.00 | 0.00 | 0.00 | 68 | 1015.4 |
| 20260905160021 | 28 | 219 | 0.0 | 0.0 | 0.00 | 0.00 | 0.00 | 68 | 1015.3 |
| 20260905155549 | 28 | 219 | 0.0 | 0.0 | 0.00 | 0.00 | 0.00 | 68 | 1015.3 |
| 20260905155011 | 28 | 219 | 0.0 | 1.6 | 0.00 | 0.00 | 0.00 | 66 | 1015.2 |
| 20260905154538 | 28 | 219 | 0.0 | 1.6 | 0.00 | 0.00 | 0.00 | 65 | 1015.1 |
| 20260905154025 | 28 | 219 | 0.0 | 1.6 | 0.00 | 0.00 | 0.00 | 64 | 1015.1 |
| 20260905153512 | 28 | 219 | 1.6 | 1.6 | 0.00 | 0.00 | 0.00 | 65 | 1015.1 |
| 20260905153028 | 29 | 219 | 0.0 | 3.2 | 0.00 | 0.00 | 0.00 | 65 | 1015.2 |
| 20260905152513 | 29 | 219 | 1.6 | 3.2 | 0.00 | 0.00 | 0.00 | 65 | 1015.2 |
| 20260905152015 | 29 | 219 | 1.6 | 4.8 | 0.00 | 0.00 | 0.00 | 64 | 1015.1 |
| 20260905151522 | 29 | 219 | 1.6 | 4.8 | 0.00 | 0.00 | 0.00 | 63 | 1015.2 |
| 20260905151024 | 30 | 219 | 3.2 | 4.8 | 0.00 | 0.00 | 0.00 | 61 | 1015.3 |
| 20260905150529 | 30 | 219 | 1.6 | 4.8 | 0.00 | 0.00 | 0.00 | 61 | 1015.3 |
| 20260905150023 | 31 | 219 | 1.6 | 4.8 | 0.00 | 0.00 | 0.00 | 58 | 1015.2 |
| 20260905145527 | 31 | 219 | 1.6 | 3.2 | 0.00 | 0.00 | 0.00 | 55 | 1015.2 |
| 20260905145030 | 31 | 219 | 1.6 | 4.8 | 0.00 | 0.00 | 0.00 | 52 | 1015.2 |
| 20260905144515 | 31 | 219 | 3.2 | 6.4 | 0.00 | 0.00 | 0.00 | 52 | 1015.1 |
| 20260905144019 | 32 | 219 | 1.6 | 6.4 | 0.00 | 0.00 | 0.00 | 52 | 1015.1 |
| 20260905143530 | 32 | 218 | 4.8 | 6.4 | 0.00 | 0.00 | 0.00 | 49 | 1015.1 |
| 20260905143025 | 32 | 213 | 3.2 | 6.4 | 0.00 | 0.00 | 0.00 | 47 | 1015.1 |
| 20260905142512 | 32 | 220 | 1.6 | 4.8 | 0.00 | 0.00 | 0.00 | 50 | 1015.1 |
| 20260905142014 | 33 | 220 | 1.6 | 4.8 | 0.00 | 0.00 | 0.00 | 52 | 1015.1 |
| 20260905141518 | 33 | 220 | 1.6 | 6.4 | 0.00 | 0.00 | 0.00 | 46 | 1015.1 |
| 20260905141020 | 33 | 215 | 3.2 | 6.4 | 0.00 | 0.00 | 0.00 | 47 | 1015.1 |
| 20260905140525 | 33 | 202 | 3.2 | 4.8 | 0.00 | 0.00 | 0.00 | 47 | 1015.2 |
| 20260905140020 | 33 | 202 | 1.6 | 6.4 | 0.00 | 0.00 | 0.00 | 44 | 1015.3 |
| 20260905135525 | 33 | 202 | 3.2 | 9.7 | 0.00 | 0.00 | 0.00 | 44 | 1015.3 |
| 20260905135030 | 33 | 200 | 4.8 | 9.7 | 0.00 | 0.00 | 0.00 | 46 | 1015.3 |
| 20260905134518 | 33 | 199 | 4.8 | 8.0 | 0.00 | 0.00 | 0.00 | 44 | 1015.3 |
| 20260905134021 | 33 | 209 | 1.6 | 6.4 | 0.00 | 0.00 | 0.00 | 43 | 1015.3 |
| 20260905133512 | 33 | 205 | 1.6 | 6.4 | 0.00 | 0.00 | 0.00 | 44 | 1015.3 |
| 20260905133027 | 33 | 197 | 1.6 | 9.7 | 0.00 | 0.00 | 0.00 | 43 | 1015.3 |
| 20260905132534 | 33 | 197 | 1.6 | 9.7 | 0.00 | 0.00 | 0.00 | 44 | 1015.4 |
| 20260905132016 | 33 | 204 | 4.8 | 8.0 | 0.00 | 0.00 | 0.00 | 42 | 1015.3 |
| 20260905131542 | 33 | 195 | 1.6 | 4.8 | 0.00 | 0.00 | 0.00 | 44 | 1015.2 |
| 20260905131021 | 32 | 196 | 1.6 | 8.0 | 0.00 | 0.00 | 0.00 | 43 | 1015.2 |
| 20260905130547 | 32 | 207 | 1.6 | 8.0 | 0.00 | 0.00 | 0.00 | 42 | 1015.2 |
| 20260905130021 | 32 | 215 | 3.2 | 9.7 | 0.00 | 0.00 | 0.00 | 42 | 1015.4 |
| 20260905125526 | 32 | 202 | 4.8 | 9.7 | 0.00 | 0.00 | 0.00 | 42 | 1015.5 |
| 20260905125048 | 32 | 221 | 3.2 | 11.3 | 0.00 | 0.00 | 0.00 | 41 | 1015.4 |
| 20260905124515 | 32 | 182 | 3.2 | 9.7 | 0.00 | 0.00 | 0.00 | 43 | 1015.5 |
| 20260905124017 | 32 | 183 | 1.6 | 9.7 | 0.00 | 0.00 | 0.00 | 41 | 1015.6 |
| 20260905123524 | 32 | 213 | 4.8 | 8.0 | 0.00 | 0.00 | 0.00 | 46 | 1015.7 |
| 20260905123040 | 32 | 229 | 1.6 | 9.7 | 0.00 | 0.00 | 0.00 | 41 | 1015.7 |
| 20260905122524 | 32 | 215 | 3.2 | 8.0 | 0.00 | 0.00 | 0.00 | 42 | 1015.8 |
| 20260905122027 | 32 | 207 | 1.6 | 6.4 | 0.00 | 0.00 | 0.00 | 46 | 1015.8 |
| 20260905121512 | 32 | 217 | 3.2 | 6.4 | 0.00 | 0.00 | 0.00 | 43 | 1015.8 |
| 20260905121034 | 32 | 223 | 3.2 | 9.7 | 0.00 | 0.00 | 0.00 | 45 | 1015.9 |
| 20260905120523 | 32 | 220 | 4.8 | 9.7 | 0.00 | 0.00 | 0.00 | 42 | 1015.9 |
| 20260905120018 | 32 | 207 | 4.8 | 9.7 | 0.00 | 0.00 | 0.00 | 42 | 1015.9 |
| 20260905115523 | 32 | 226 | 4.8 | 9.7 | 0.00 | 0.00 | 0.00 | 41 | 1015.8 |
| 20260905115026 | 32 | 207 | 4.8 | 9.7 | 0.00 | 0.00 | 0.00 | 44 | 1015.9 |
| 20260905114531 | 32 | 202 | 6.4 | 9.7 | 0.00 | 0.00 | 0.00 | 43 | 1015.9 |
| 20260905114016 | 32 | 43 | 0.0 | 8.0 | 0.00 | 0.00 | 0.00 | 41 | 1015.9 |
| 20260905113523 | 32 | 74 | 4.8 | 6.4 | 0.00 | 0.00 | 0.00 | 40 | 1015.9 |
| 20260905113015 | 32 | 221 | 3.2 | 6.4 | 0.00 | 0.00 | 0.00 | 40 | 1016.0 |
| 20260905112522 | 31 | 280 | 1.6 | 6.4 | 0.00 | 0.00 | 0.00 | 41 | 1016.0 |
| 20260905112025 | 31 | 240 | 3.2 | 6.4 | 0.00 | 0.00 | 0.00 | 43 | 1016.0 |
| 20260905111530 | 31 | 150 | 1.6 | 6.4 | 0.00 | 0.00 | 0.00 | 45 | 1016.0 |
| 20260905111017 | 31 | 103 | 1.6 | 6.4 | 0.00 | 0.00 | 0.00 | 46 | 1016.0 |
| 20260905110521 | 31 | 81 | 1.6 | 4.8 | 0.00 | 0.00 | 0.00 | 44 | 1015.9 |
| 20260905110015 | 30 | 70 | 3.2 | 4.8 | 0.00 | 0.00 | 0.00 | 46 | 1015.9 |
| 20260905105520 | 30 | 60 | 1.6 | 6.4 | 0.00 | 0.00 | 0.00 | 45 | 1016.0 |
| 20260905105043 | 29 | 61 | 3.2 | 6.4 | 0.00 | 0.00 | 0.00 | 51 | 1016.1 |
| 20260905104528 | 29 | 56 | 3.2 | 6.4 | 0.00 | 0.00 | 0.00 | 54 | 1016.1 |
| 20260905104030 | 28 | 56 | 4.8 | 6.4 | 0.00 | 0.00 | 0.00 | 59 | 1016.1 |
| 20260905103536 | 28 | 58 | 4.8 | 6.4 | 0.00 | 0.00 | 0.00 | 60 | 1016.2 |
| 20260905103030 | 28 | 57 | 3.2 | 6.4 | 0.00 | 0.00 | 0.00 | 62 | 1016.2 |
| 20260905102517 | 28 | 55 | 3.2 | 6.4 | 0.00 | 0.00 | 0.00 | 63 | 1016.3 |
| 20260905102041 | 27 | 50 | 3.2 | 6.4 | 0.00 | 0.00 | 0.00 | 65 | 1016.3 |
| 20260905101525 | 27 | 49 | 4.8 | 6.4 | 0.00 | 0.00 | 0.00 | 64 | 1016.3 |
| 20260905101027 | 27 | 49 | 4.8 | 8.0 | 0.00 | 0.00 | 0.00 | 68 | 1016.3 |
| 20260905100512 | 27 | 47 | 4.8 | 8.0 | 0.00 | 0.00 | 0.00 | 68 | 1016.4 |
| 20260905100025 | 26 | 46 | 3.2 | 8.0 | 0.00 | 0.00 | 0.00 | 68 | 1016.5 |
| 20260905095531 | 26 | 46 | 4.8 | 6.4 | 0.00 | 0.00 | 0.00 | 68 | 1016.5 |
| 20260905095018 | 26 | 47 | 4.8 | 6.4 | 0.00 | 0.00 | 0.00 | 68 | 1016.5 |
| 20260905094526 | 26 | 47 | 1.6 | 4.8 | 0.00 | 0.00 | 0.00 | 68 | 1016.5 |
| 20260905094030 | 26 | 47 | 1.6 | 4.8 | 0.00 | 0.00 | 0.00 | 69 | 1016.4 |
| 20260905093518 | 26 | 47 | 3.2 | 6.4 | 0.00 | 0.00 | 0.00 | 69 | 1016.4 |
| 20260905093012 | 26 | 47 | 3.2 | 8.0 | 0.00 | 0.00 | 0.00 | 69 | 1016.4 |
| 20260905092517 | 26 | 47 | 4.8 | 8.0 | 0.00 | 0.00 | 0.00 | 68 | 1016.4 |
| 20260905092020 | 26 | 48 | 4.8 | 8.0 | 0.00 | 0.00 | 0.00 | 69 | 1016.4 |
| 20260905091525 | 26 | 48 | 3.2 | 6.4 | 0.00 | 0.00 | 0.00 | 69 | 1016.4 |
| 20260905091030 | 26 | 49 | 3.2 | 6.4 | 0.00 | 0.00 | 0.00 | 70 | 1016.4 |
| 20260905090517 | 25 | 49 | 4.8 | 8.0 | 0.00 | 0.00 | 0.00 | 70 | 1016.4 |
| 20260905090034 | 25 | 48 | 4.8 | 6.4 | 0.00 | 0.00 | 0.00 | 70 | 1016.4 |
| 20260905085539 | 25 | 47 | 3.2 | 8.0 | 0.00 | 0.00 | 0.00 | 70 | 1016.4 |
| 20260905085020 | 25 | 48 | 4.8 | 8.0 | 0.00 | 0.00 | 0.00 | 69 | 1016.4 |
| 20260905084524 | 25 | 46 | 4.8 | 8.0 | 0.00 | 0.00 | 0.00 | 68 | 1016.4 |
| 20260905084046 | 25 | 46 | 4.8 | 8.0 | 0.00 | 0.00 | 0.00 | 69 | 1016.3 |
| 20260905083516 | 25 | 46 | 4.8 | 8.0 | 0.00 | 0.00 | 0.00 | 70 | 1016.4 |
| 20260905083030 | 25 | 45 | 4.8 | 8.0 | 0.00 | 0.00 | 0.00 | 69 | 1016.4 |
| 20260905082515 | 25 | 47 | 4.8 | 8.0 | 0.00 | 0.00 | 0.00 | 71 | 1016.4 |
| 20260905082018 | 25 | 48 | 6.4 | 8.0 | 0.00 | 0.00 | 0.00 | 71 | 1016.4 |
| 20260905081524 | 25 | 47 | 4.8 | 8.0 | 0.00 | 0.00 | 0.00 | 72 | 1016.3 |
| 20260905081028 | 25 | 48 | 4.8 | 8.0 | 0.00 | 0.00 | 0.00 | 72 | 1016.2 |
| 20260905080514 | 24 | 49 | 4.8 | 6.4 | 0.00 | 0.00 | 0.00 | 73 | 1016.2 |
| 20260905080025 | 24 | 51 | 4.8 | 6.4 | 0.00 | 0.00 | 0.00 | 73 | 1016.2 |
| 20260905075529 | 24 | 51 | 3.2 | 8.0 | 0.00 | 0.00 | 0.00 | 74 | 1016.2 |
| 20260905075012 | 23 | 50 | 6.4 | 8.0 | 0.00 | 0.00 | 0.00 | 74 | 1016.3 |
| 20260905074518 | 23 | 48 | 4.8 | 9.7 | 0.00 | 0.00 | 0.00 | 75 | 1016.3 |
| 20260905074019 | 23 | 49 | 4.8 | 11.3 | 0.00 | 0.00 | 0.00 | 76 | 1016.4 |